Japan Airlines Virtual Airport Information Service

Tokyo Haneda International Airport

ICAO: RJTT Country: Japan
Latitude: 35.5522 Longitude: 139.78
Latest Arrival : JAL138 (RJOO-RJTT) Latest Departure : ADO59 (RJTT-RJCH)


WX CaptureLIVE
Data provided by noaa.gov | Fetched at 13:12:04

METAR : RJTT 231130Z 14011KT 9999 BKN035 13/07 Q1023 BECMG 08008KT RMK 6SC035 A3021

TAF : RJTT 231105Z 2312/2418 12010KT 9999 FEW030 BECMG 2314/2316 02008KT BECMG 2400/2403 07006KT BECMG 2403/2406 20010KT


Runway Data for RJTT
Data provided by openaviationdata.com

Runway ID Mag Var Hdg Length Elevation Surface ILS Freq ILS Id ILS Slope
4 -7 41° 8208 ft 21 ft Asphalt -- -- --
16L -7 156° 9851 ft 21 ft Asphalt -- -- --
16R -7 156° 9851 ft 21 ft Asphalt -- -- --
22 -7 221° 8208 ft 21 ft Asphalt 108.1 IAD 3
34L -7 336° 9851 ft 21 ft Asphalt 111.7 IHA 3
34R -7 336° 9851 ft 21 ft Asphalt 108.9 ITC 3

Tokyo Haneda International Airport, Japan
Use only for reference purposes



Not for navigational purposes.